Weather History for Harrison, AR

Change the Weather History Date:

Sunday, August 24, 2014

  Actual Average Record
Temperature  
Mean Temperature 82 °F 77 °F  
Max Temperature 94 °F 88 °F 105 °F (1943)
Min Temperature 69 °F 65 °F 51 °F (1949)
Degree Days  
Heating Degree Days 0 0  
Month to date heating degree days 0 0  
Since 1 June heating degree days 1 6  
Since 1 July heating degree days 1 0  
Cooling Degree Days 17 12  
Month to date cooling degree days 297 320  
Year to date cooling degree days 1028 1138  
Since 1 June cooling degree days 841 999  
Growing Degree Days 31 (Base 50)    
Moisture  
Dew Point 68 °F    
Average Humidity 68    
Maximum Humidity 100    
Minimum Humidity 36    
Precipitation  
Precipitation 0.00 in 0.11 in 2.29 in (1928)
Month to date precipitation 1.01 2.79  
Year to date precipitation 26.54 28.17  
Snow  
Snow 0.00 in 0.00 in - ()
Month to date snowfall 0.0 0.0  
Since 1 June snowfall 0.0 0.0  
Since 1 July snowfall 0.0 0.0  
Snow Depth 0.00 in    
Sea Level Pressure  
Sea Level Pressure 29.94 in    
Wind  
Wind Speed 4 mph (SSE)    
Max Wind Speed 13 mph    
Max Gust Speed 21 mph    
Visibility 10 miles    
Events      
T = Trace of Precipitation, MM = Missing Value Source: NWS Daily Summary

Daily Weather History Graph

Daily Weather History Graph

Search for Another Location

Airport:

Trip Planner

Search our weather history database for the weather conditions in past years. The results will help you decide how hot, cold, wet, or windy it might be!

Date:

Astronomy

Aug. 24, 2014 Rise Set
Actual Time 6:37 AM CDT 7:51 PM CDT
Civil Twilight 6:11 AM CDT 8:18 PM CDT
Nautical Twilight 5:39 AM CDT 8:49 PM CDT
Astronomical Twilight 5:05 AM CDT 9:22 PM CDT
Moon 5:48 AM CDT (8/24) 7:11 PM CDT (8/24)
Length of Visible Light 14h 06m
Length of Day
13h 13m
Waning Crescent, 1% of the Moon is Illuminated
Aug 24
Waning Crescent
Aug 25
New
Sep 2
First Quarter
Sep 8
Full
Sep 15
Last Quarter

Hourly Weather History & Observations

Time (CDT) Temp. Heat Index Dew Point Humidity Pressure Visibility Wind Dir Wind Speed Gust Speed Precip Events Conditions
12:53 AM 79.0 °F - 68.0 °F 69% 29.93 in 10.0 mi South 3.5 mph - N/A   Clear
1:53 AM 73.9 °F - 69.1 °F 85% 29.93 in 10.0 mi Calm Calm - N/A   Clear
2:53 AM 73.0 °F - 70.0 °F 90% 29.92 in 10.0 mi Calm Calm - N/A   Clear
3:53 AM 73.0 °F - 68.0 °F 84% 29.92 in 10.0 mi Calm Calm - N/A   Clear
4:53 AM 72.0 °F - 69.1 °F 91% 29.92 in 10.0 mi East 3.5 mph - N/A   Clear
5:53 AM 70.0 °F - 69.1 °F 97% 29.93 in 10.0 mi SE 3.5 mph - N/A   Clear
6:53 AM 69.1 °F - 68.0 °F 96% 29.96 in 10.0 mi East 4.6 mph - N/A   Clear
7:53 AM 72.0 °F - 69.1 °F 91% 29.97 in 10.0 mi SE 3.5 mph - N/A   Clear
8:53 AM 75.9 °F - 70.0 °F 82% 29.98 in 10.0 mi SE 6.9 mph - N/A   Clear
9:53 AM 82.0 °F 85.9 °F 70.0 °F 67% 29.98 in 10.0 mi SE 3.5 mph - N/A   Clear
10:53 AM 87.1 °F 92.0 °F 70.0 °F 57% 29.98 in 10.0 mi Calm Calm - N/A   Clear
11:53 AM 90.0 °F 94.5 °F 69.1 °F 50% 29.97 in 10.0 mi WNW 3.5 mph - N/A   Clear
12:53 PM 91.0 °F 95.6 °F 69.1 °F 48% 29.96 in 10.0 mi Variable 4.6 mph - N/A   Clear
1:53 PM 93.9 °F 95.2 °F 63.0 °F 36% 29.95 in 10.0 mi SSE 9.2 mph - N/A   Clear
2:53 PM 93.0 °F 95.9 °F 66.0 °F 41% 29.94 in 10.0 mi SSW 9.2 mph - N/A   Clear
3:53 PM 93.0 °F 96.4 °F 66.9 °F 42% 29.92 in 10.0 mi SSE 9.2 mph - N/A   Clear
4:53 PM 91.9 °F 95.9 °F 68.0 °F 45% 29.91 in 10.0 mi South 4.6 mph - N/A   Clear
5:53 PM 90.0 °F 92.4 °F 66.0 °F 45% 29.91 in 10.0 mi South 6.9 mph - N/A   Clear
6:53 PM 87.1 °F 89.9 °F 66.9 °F 51% 29.92 in 10.0 mi South 5.8 mph - N/A   Clear
7:53 PM 82.0 °F 84.9 °F 68.0 °F 62% 29.92 in 10.0 mi SW 3.5 mph - N/A   Clear
8:53 PM 78.8 °F - 68.0 °F 69% 29.98 in 10.0 mi South 3.5 mph - N/A   Clear
9:53 PM 75.9 °F - 68.0 °F 76% 29.94 in 10.0 mi Calm Calm - N/A   Clear
10:53 PM 75.0 °F - 66.0 °F 73% 29.95 in 10.0 mi Calm Calm - N/A   Clear